This is the latest recevied weather packets stored in our database for station/object N4MGC. If no packets are shown the sender has not sent any weather packets the latest 10 day(s).
| Time | Temp. | Humidity | Pressure | Rain* | Wind** | Luminosity | Snow |
|---|---|---|---|---|---|---|---|
| 1778022625 | 23.33° C | 70% | 1011.5 hPa | 0 mm | - | 26 W/m² | - |
| 1778022322 | 23.33° C | 69% | 1011.7 hPa | 0 mm | - | 25 W/m² | - |
| 1778022019 | 23.33° C | 67% | 1011.6 hPa | 0 mm | - | 57 W/m² | - |
| 1778021715 | 23.33° C | 70% | 1011.5 hPa | 0 mm | - | 75 W/m² | - |
| 1778021411 | 23.33° C | 69% | 1011.5 hPa | 0 mm | - | 97 W/m² | - |
| 1778021109 | 23.33° C | 69% | 1011.5 hPa | 0 mm | - | 51 W/m² | - |
| 1778020806 | 23.33° C | 69% | 1011.5 hPa | 0 mm | - | 46 W/m² | - |
| 1778020503 | 23.33° C | 68% | 1011.6 hPa | 0 mm | - | 49 W/m² | - |
| 1778020199 | 23.33° C | 68% | 1011.6 hPa | 0 mm | - | 65 W/m² | - |
| 1778019895 | 23.33° C | 69% | 1011.4 hPa | 0 mm | - | 70 W/m² | - |
| 1778019591 | 23.33° C | 68% | 1011.7 hPa | 0 mm | - | 77 W/m² | - |
| 1778019288 | 23.89° C | 68% | 1011.6 hPa | 0 mm | - | 103 W/m² | - |
| 1778018985 | 23.89° C | 66% | 1011.5 hPa | 0 mm | - | 60 W/m² | - |
| 1778018682 | 23.89° C | 66% | 1011.5 hPa | 0 mm | - | 93 W/m² | - |
| 1778018380 | 23.89° C | 65% | 1011.7 hPa | 0 mm | - | 100 W/m² | - |
| 1778018078 | 23.89° C | 67% | 1011.5 hPa | 0 mm | - | 173 W/m² | - |
| 1778017776 | 23.89° C | 67% | 1011.8 hPa | 0 mm | - | 98 W/m² | - |
| 1778017473 | 23.89° C | 68% | 1011.6 hPa | 0 mm | - | 83 W/m² | - |
| 1778017170 | 23.89° C | 68% | 1011.6 hPa | 0 mm | - | 72 W/m² | - |
| 1778016868 | 24.44° C | 67% | 1011.5 hPa | 0 mm | - | 81 W/m² | - |
| 1778016564 | 24.44° C | 66% | 1011.5 hPa | 0 mm | - | 141 W/m² | - |
| 1778016261 | 24.44° C | 65% | 1012 hPa | 0 mm | - | 148 W/m² | - |
| 1778015957 | 24.44° C | 65% | 1011.7 hPa | 0 mm | - | 161 W/m² | - |
| 1778015655 | 24.44° C | 66% | 1011.6 hPa | 0 mm | - | 195 W/m² | - |
| 1778015351 | 24.44° C | 66% | 1011.8 hPa | 0 mm | - | 177 W/m² | - |
* Rain latest hour (hover to see other rain measurements)
** Current wind speed in m/s (hover to see current wind gust speed)